CZ-6A DEB

Satellite information

Favourite Embed

Satellite Type and Status

DEBRISIN ORBIT

Key statistics

Satellite CZ-6A DEB at a glance.

Uptime

1072

Days in orbit

Revolutions

≈ 14.4

Per day

Orbit

SSO

Sun Synchronous Orbit

Inclination

98.6

Latest

Satellite identification and parameters

Extended collection of information and parameters for CZ-6A DEB.

Object identification

Identified? True

Debris? True

Object name: CZ-6A DEB

International designator: 2022-151ABC

Object number (NORAD): 56236

Object ID (CCSDS): 56236

Country: PEOPLES REPUBLIC OF CHINA (PRC)

Current information (Y/N): Y

RCS size: SMALL

Orbital parameters

Period: 99.794 minutes

Inclination: 98.616 deg

SMA: 7126.838 km

Apoapsis: 799.115 km

Periapsis: 698.292 km

RAAN: 310.1605 deg

Eccentricy: 0.00707354

Argument of periapsis: 34.3004 deg

Mean anomaly: 326.2724 deg

Mean motion: 14.4297029 rev/day

Mean motion (dot): 0.00008678 rev/day2

B* drag term: 0.0025267236 1/REarth

Two-line elements (TLE)

Creation date: Oct. 18, 2025, 2:17 a.m.

Reference frame: TEME

Reference center: EARTH

Epoch: Oct. 17, 2025, 10:41 p.m. UTC

TLE line 0: 0 CZ-6A DEB

TLE line 1: 1 56236U 22151ABC 25290.94555284 .00008678 00000-0 25267-2 0 9996

TLE line 2: 2 56236 98.6160 310.1605 0070735 34.3004 326.2724 14.42970290141680

Live tracking on map

Real-time ground track for satellite CZ-6A DEB.

In-orbit conjunctions

A list of the most updated potential collisions computed for object CZ-6A DEB.

Target Orbit TCA Probability of collision Miss distance Type
CZ-6A DEB LEO 2025-08-05 07:05:02 0.0001459858 243.0 (m) DEBRIS
COSMOS 1354 LEO 2025-03-04 14:18:29 0.000113807 194.0 (m) PAYLOAD
CZ-6A DEB LEO 2024-10-28 14:59:03 0.0002634924 491.0 (m) DEBRIS

Associated space launch

Chinese satellite reported for atmospheric/ocean/environmental/spatial parameter research purposes, details TBD.

CZ-6A DEB was lifted into orbit during the mission ‘Long March 6A | Yunhai 3’, on board a Long March 6A space rocket.

The launch took place on Nov. 11, 2022, 10:52 p.m. from Launch Complex 9A.

For more information about the launch, click the button.

Launch to space Long March 6A | Yunhai 3
Long March 6A | Yunhai 3

Agency: N/A

Status: Launch Successful

Launch date: Nov. 11, 2022, 10:52 p.m. UTC

Rocket: Long March 6A

Launch pad: Launch Complex 9A

Location: Taiyuan Satellite Launch Center, People's Republic of China

...

Latest news about this satellite

There are no fresh news available about this satellite. Check back as we update our databases every day.


Newsletter sign-up

Weekly statistics, charts and insights to help you stay on top of the space industry.